Weather History for Council Bluffs, IA

Change the Weather History Date:

Sunday, January 13, 2013

  Actual Average Record
Temperature  
Mean Temperature 14 °F -  
Max Temperature 21 °F 31 °F 46 °F (2002)
Min Temperature 6 °F 16 °F -4 °F (2009)
Degree Days  
Heating Degree Days 52    
Moisture  
Dew Point 3 °F    
Average Humidity 63    
Maximum Humidity 79    
Minimum Humidity 42    
Precipitation  
Precipitation 0.00 in - - ()
Sea Level Pressure  
Sea Level Pressure 30.19 in    
Wind  
Wind Speed 11 mph (NW)    
Max Wind Speed 17 mph    
Max Gust Speed 24 mph    
Visibility 10 miles    
Events Rain , Snow    
Averages and records for this station are not official NWS values.
T = Trace of Precipitation, MM = Missing Value Source: NWS Daily Summary

Daily Weather History Graph

Daily Weather History Graph

Search for Another Location

Airport:

Trip Planner

Search our weather history database for the weather conditions in past years. The results will help you decide how hot, cold, wet, or windy it might be!

Date:

Astronomy

Jan. 13, 2013 Rise Set
Actual Time 7:47 AM CST 5:16 PM CST
Civil Twilight 7:16 AM CST 5:47 PM CST
Nautical Twilight 6:42 AM CST 6:21 PM CST
Astronomical Twilight 6:09 AM CST 6:54 PM CST
Moon 8:44 AM CST (1/13) 7:58 PM CST (1/13)
Length of Visible Light 10h 30m
Length of Day
9h 29m
Waxing Crescent, 5% of the Moon is Illuminated
Jan 13
Waxing Crescent
Jan 18
First Quarter
Jan 26
Full
Feb 3
Last Quarter
Feb 10
New

Hourly Weather History & Observations

Time (CST) Temp. Windchill Dew Point Humidity Pressure Visibility Wind Dir Wind Speed Gust Speed Precip Events Conditions
12:15 AM 10.4 °F -4.8 °F 3.2 °F 73% 30.10 in 10.0 mi NW 12.7 mph - N/A   Overcast
12:35 AM 12.2 °F -1.8 °F 3.2 °F 67% 30.09 in 10.0 mi NW 11.5 mph - N/A   Overcast
12:55 AM 12.2 °F -3.1 °F 5.0 °F 73% 30.10 in 10.0 mi NW 13.8 mph - N/A Snow Light Snow
1:15 AM 12.2 °F -1.0 °F 5.0 °F 73% 30.10 in 10.0 mi NW 10.4 mph 18.4 mph N/A   Overcast
1:35 AM 12.2 °F -3.1 °F 5.0 °F 73% 30.10 in 10.0 mi NW 13.8 mph 19.6 mph N/A Snow Light Snow
1:55 AM 10.4 °F -5.4 °F 3.2 °F 73% 30.09 in 7.0 mi NW 13.8 mph - N/A Snow Light Snow
2:15 AM 10.4 °F -6.6 °F 3.2 °F 73% 30.10 in 10.0 mi NNW 16.1 mph - N/A   Overcast
2:35 AM 10.4 °F -7.2 °F 1.4 °F 67% 30.11 in 10.0 mi NNW 17.3 mph - N/A   Overcast
2:55 AM 8.6 °F -5.5 °F 1.4 °F 73% 30.12 in 10.0 mi NNW 10.4 mph 17.3 mph N/A   Overcast
3:15 AM 8.6 °F -9.5 °F 1.4 °F 73% 30.11 in 10.0 mi NNW 17.3 mph 24.2 mph N/A   Overcast
3:35 AM 8.6 °F -6.3 °F 1.4 °F 73% 30.12 in 10.0 mi NNW 11.5 mph 19.6 mph N/A   Overcast
3:55 AM 8.6 °F -6.3 °F 1.4 °F 73% 30.12 in 10.0 mi NNW 11.5 mph - N/A   Overcast
4:15 AM 8.6 °F -6.3 °F 1.4 °F 73% 30.11 in 10.0 mi NNW 11.5 mph - N/A   Overcast
4:35 AM 8.6 °F -6.3 °F 1.4 °F 73% 30.12 in 10.0 mi NNW 11.5 mph 23.0 mph N/A Snow Light Snow
4:55 AM 8.6 °F -7.7 °F 1.4 °F 73% 30.12 in 10.0 mi NNW 13.8 mph 21.9 mph N/A   Overcast
5:15 AM 8.6 °F -4.7 °F 1.4 °F 73% 30.13 in 7.0 mi NNW 9.2 mph 16.1 mph N/A Snow Light Snow
5:35 AM 8.6 °F -5.5 °F 1.4 °F 73% 30.13 in 10.0 mi NW 10.4 mph 17.3 mph N/A   Overcast
5:55 AM 8.6 °F -5.5 °F 3.2 °F 79% 30.14 in 9.0 mi NW 10.4 mph - N/A Snow Light Snow
6:15 AM 8.6 °F -5.5 °F 1.4 °F 73% 30.15 in 9.0 mi NNW 10.4 mph - N/A Snow Light Snow
6:35 AM 8.6 °F -5.5 °F 1.4 °F 73% 30.16 in 10.0 mi NNW 10.4 mph - N/A Snow Light Snow
6:55 AM 8.6 °F -2.6 °F 3.2 °F 79% 30.17 in 5.0 mi NNW 6.9 mph - N/A Rain Light Freezing Rain
7:15 AM 8.6 °F -5.5 °F 1.4 °F 73% 30.17 in 10.0 mi NW 10.4 mph - N/A   Overcast
7:35 AM 8.6 °F -6.3 °F 1.4 °F 73% 30.17 in 10.0 mi NW 11.5 mph - N/A   Overcast
7:55 AM 6.8 °F -8.6 °F -0.4 °F 72% 30.18 in 10.0 mi NNW 11.5 mph - N/A   Mostly Cloudy
8:15 AM 6.8 °F -5.9 °F 1.4 °F 79% 30.20 in 10.0 mi NW 8.1 mph - N/A   Scattered Clouds
8:35 AM 8.6 °F -6.3 °F 1.4 °F 73% 30.20 in 10.0 mi WNW 11.5 mph - N/A   Partly Cloudy
8:55 AM 8.6 °F -4.7 °F 1.4 °F 73% 30.20 in 10.0 mi NW 9.2 mph - N/A   Clear
9:15 AM 8.6 °F -7.0 °F 1.4 °F 73% 30.20 in 10.0 mi NNW 12.7 mph - N/A   Partly Cloudy
9:35 AM 10.4 °F -4.1 °F 1.4 °F 67% 30.21 in 10.0 mi NW 11.5 mph - N/A   Partly Cloudy
9:55 AM 10.4 °F -4.8 °F 1.4 °F 67% 30.21 in 10.0 mi NW 12.7 mph - N/A   Clear
10:15 AM 12.2 °F -1.8 °F 1.4 °F 62% 30.21 in 10.0 mi WNW 11.5 mph - N/A   Clear
10:35 AM 12.2 °F -1.0 °F 1.4 °F 62% 30.21 in 10.0 mi NW 10.4 mph 16.1 mph N/A   Clear
10:55 AM 14.0 °F 0.5 °F 3.2 °F 62% 30.20 in 10.0 mi WNW 11.5 mph - N/A   Clear
11:15 AM 14.0 °F -0.2 °F 3.2 °F 62% 30.20 in 10.0 mi NW 12.7 mph 18.4 mph N/A   Clear
11:35 AM 15.8 °F 2.7 °F 3.2 °F 58% 30.20 in 10.0 mi West 11.5 mph 19.6 mph N/A   Clear
11:55 AM 15.8 °F 2.7 °F 3.2 °F 58% 30.19 in 10.0 mi NW 11.5 mph 21.9 mph N/A   Clear
12:15 PM 15.8 °F 2.7 °F 3.2 °F 58% 30.19 in 10.0 mi WNW 11.5 mph - N/A   Clear
12:35 PM 17.6 °F 3.2 °F 3.2 °F 53% 30.18 in 10.0 mi West 15.0 mph - N/A   Clear
12:55 PM 17.6 °F 3.7 °F 3.2 °F 53% 30.18 in 10.0 mi WNW 13.8 mph - N/A   Clear
1:15 PM 19.4 °F 6.0 °F 3.2 °F 49% 30.17 in 10.0 mi NW 13.8 mph - N/A   Clear
1:35 PM 19.4 °F 6.0 °F 1.4 °F 46% 30.17 in 10.0 mi NW 13.8 mph - N/A   Clear
1:55 PM 19.4 °F 6.6 °F -0.4 °F 42% 30.18 in 10.0 mi NW 12.7 mph 20.7 mph N/A   Clear
2:15 PM 19.4 °F 6.6 °F 1.4 °F 46% 30.18 in 10.0 mi NW 12.7 mph 18.4 mph N/A   Clear
2:35 PM 19.4 °F 6.6 °F -0.4 °F 42% 30.18 in 10.0 mi NW 12.7 mph 19.6 mph N/A   Clear
2:55 PM 19.4 °F 8.6 °F -0.4 °F 42% 30.19 in 10.0 mi WNW 9.2 mph 16.1 mph N/A   Clear
3:15 PM 21.2 °F 8.3 °F 1.4 °F 42% 30.20 in 10.0 mi NW 13.8 mph - N/A   Clear
3:35 PM 19.4 °F 7.2 °F 1.4 °F 46% 30.22 in 10.0 mi WNW 11.5 mph - N/A   Clear
3:55 PM 21.2 °F 9.5 °F 1.4 °F 42% 30.21 in 10.0 mi WNW 11.5 mph - N/A   Clear
4:15 PM 19.4 °F 6.6 °F 3.2 °F 49% 30.21 in 10.0 mi WNW 12.7 mph - N/A   Clear
4:35 PM 19.4 °F 7.2 °F 3.2 °F 49% 30.22 in 10.0 mi WNW 11.5 mph - N/A   Clear
4:55 PM 19.4 °F 7.2 °F 3.2 °F 49% 30.24 in 10.0 mi WNW 11.5 mph - N/A   Clear
5:15 PM 19.4 °F 8.6 °F 3.2 °F 49% 30.24 in 10.0 mi WNW 9.2 mph - N/A   Clear
5:35 PM 17.6 °F 5.7 °F 3.2 °F 53% 30.24 in 10.0 mi WNW 10.4 mph - N/A   Clear
6:15 PM 17.6 °F 8.2 °F 3.2 °F 53% 30.25 in 10.0 mi WNW 6.9 mph - N/A   Clear
6:35 PM 17.6 °F 8.2 °F 5.0 °F 58% 30.25 in 10.0 mi West 6.9 mph - N/A   Clear
6:55 PM 15.8 °F 7.2 °F 5.0 °F 62% 30.25 in 10.0 mi WNW 5.8 mph - N/A   Clear
7:15 PM 15.8 °F 8.6 °F 5.0 °F 62% 30.26 in 10.0 mi WNW 4.6 mph - N/A   Clear
7:35 PM 15.8 °F 7.2 °F 5.0 °F 62% 30.27 in 10.0 mi WNW 5.8 mph - N/A   Clear
7:55 PM 14.0 °F 6.5 °F 5.0 °F 67% 30.27 in 10.0 mi West 4.6 mph - N/A   Clear
8:15 PM 15.8 °F 8.6 °F 5.0 °F 62% 30.27 in 10.0 mi WNW 4.6 mph - N/A   Clear
8:35 PM 15.8 °F 8.6 °F 3.2 °F 58% 30.28 in 10.0 mi West 4.6 mph - N/A   Clear
8:55 PM 14.0 °F 5.1 °F 5.0 °F 67% 30.27 in 10.0 mi NW 5.8 mph - N/A   Clear
9:15 PM 14.0 °F 6.5 °F 5.0 °F 67% 30.28 in 10.0 mi WNW 4.6 mph - N/A   Clear
9:35 PM 14.0 °F 3.9 °F 5.0 °F 67% 30.28 in 10.0 mi NW 6.9 mph - N/A   Clear
9:55 PM 14.0 °F 3.9 °F 3.2 °F 62% 30.28 in 10.0 mi NW 6.9 mph - N/A   Clear
10:15 PM 14.0 °F 3.9 °F 3.2 °F 62% 30.28 in 10.0 mi NNW 6.9 mph - N/A   Clear
10:35 PM 14.0 °F 6.5 °F 3.2 °F 62% 30.29 in 10.0 mi WNW 4.6 mph - N/A   Clear
10:55 PM 14.0 °F - 3.2 °F 62% 30.30 in 10.0 mi Calm Calm - N/A   Clear
11:35 PM 14.0 °F - 3.2 °F 62% 30.31 in 10.0 mi Calm Calm - N/A   Clear
11:55 PM 14.0 °F 6.5 °F 3.2 °F 62% 30.32 in 10.0 mi West 4.6 mph - N/A   Clear